RPC836 RPLS-RPVD

Flight info

Callsign RPC836
Flight time 1h 56m
Altitude 9500
Route VFR
Aircraft BE36/L-SDFGRY/S

Departure

Time 2026-04-27 07:37
Airport Danilo Atienza Air Base (RPLS)

Arrival

Time 2026-04-27 09:33
Airport Sibulan Airport (RPVD)
Time Latitude Longitude Altitude Speed Heading
2026-04-27 07:21 14.49195 120.89768 13 ft 0 kts 339°
2026-04-27 07:34 14.49196 120.89767 13 ft 1 kts 339°
2026-04-27 07:34 14.49200 120.89737 22 ft 10 kts 252°
2026-04-27 07:34 14.49166 120.89654 18 ft 13 kts 246°
2026-04-27 07:35 14.49172 120.89599 18 ft 8 kts 328°
2026-04-27 07:35 14.49208 120.89594 19 ft 5 kts 68°
2026-04-27 07:35 14.49209 120.89597 19 ft 0 kts 69°
2026-04-27 07:36 14.49220 120.89626 19 ft 26 kts 68°
2026-04-27 07:36 14.49389 120.90046 34 ft 92 kts 72°
2026-04-27 07:36 14.49582 120.90491 142 ft 112 kts 71°
2026-04-27 07:36 14.50159 120.91542 423 ft 141 kts 43°
2026-04-27 07:37 14.50788 120.91746 543 ft 153 kts 351°
2026-04-27 07:37 14.51746 120.90730 874 ft 155 kts 283°
2026-04-27 07:37 14.51834 120.89987 1007 ft 160 kts 266°
2026-04-27 07:37 14.51613 120.88826 1113 ft 169 kts 249°
2026-04-27 07:38 14.51190 120.87695 1311 ft 168 kts 241°
2026-04-27 07:38 14.50700 120.86594 1479 ft 169 kts 245°
2026-04-27 07:38 14.50267 120.85458 1568 ft 172 kts 245°
2026-04-27 07:38 14.49822 120.84299 1560 ft 175 kts 245°
2026-04-27 07:39 14.49383 120.83130 1606 ft 173 kts 245°
2026-04-27 07:39 14.48925 120.81993 1701 ft 169 kts 244°
2026-04-27 07:39 14.48474 120.80886 1830 ft 165 kts 243°
2026-04-27 07:39 14.48012 120.79807 1980 ft 163 kts 241°
2026-04-27 07:40 14.47522 120.78744 2107 ft 164 kts 240°
2026-04-27 07:40 14.47031 120.77685 2274 ft 163 kts 241°
2026-04-27 07:40 14.46543 120.76632 2410 ft 164 kts 241°
2026-04-27 07:40 14.46022 120.75555 2448 ft 170 kts 240°
2026-04-27 07:41 14.45482 120.74451 2449 ft 176 kts 240°
2026-04-27 07:41 14.44912 120.73308 2455 ft 181 kts 240°
2026-04-27 07:41 14.44341 120.72138 2472 ft 183 kts 241°
2026-04-27 07:41 14.43775 120.70970 2508 ft 181 kts 241°
2026-04-27 07:42 14.43201 120.69806 2487 ft 183 kts 240°
2026-04-27 07:42 14.42587 120.68656 2498 ft 183 kts 239°
2026-04-27 07:42 14.41959 120.67508 2469 ft 184 kts 238°
2026-04-27 07:42 14.41320 120.66383 2467 ft 181 kts 236°
2026-04-27 07:43 14.40607 120.65337 2458 ft 181 kts 230°
2026-04-27 07:43 14.39788 120.64358 2469 ft 180 kts 223°
2026-04-27 07:43 14.38890 120.63462 2471 ft 179 kts 217°
2026-04-27 07:43 14.37857 120.62776 2505 ft 175 kts 201°
2026-04-27 07:44 14.36731 120.62291 2515 ft 176 kts 197°
2026-04-27 07:44 14.35579 120.61902 2594 ft 172 kts 192°
2026-04-27 07:44 14.34441 120.61578 2702 ft 169 kts 191°
2026-04-27 07:44 14.33316 120.61275 2808 ft 166 kts 190°
2026-04-27 07:45 14.32207 120.61004 2967 ft 161 kts 188°
2026-04-27 07:45 14.31124 120.60749 3122 ft 160 kts 187°
2026-04-27 07:45 14.30048 120.60510 3291 ft 156 kts 185°
2026-04-27 07:45 14.28978 120.60351 3434 ft 156 kts 182°
2026-04-27 07:46 14.27906 120.60198 3629 ft 155 kts 182°
2026-04-27 07:46 14.26833 120.60058 3857 ft 157 kts 182°
2026-04-27 07:46 14.25734 120.59931 4114 ft 161 kts 182°
2026-04-27 07:46 14.24610 120.59814 4331 ft 166 kts 181°
2026-04-27 07:47 14.23425 120.59683 4440 ft 174 kts 182°
2026-04-27 07:47 14.22218 120.59549 4644 ft 175 kts 182°
2026-04-27 07:47 14.21004 120.59419 4845 ft 175 kts 182°
2026-04-27 07:47 14.19789 120.59291 5076 ft 176 kts 182°
2026-04-27 07:48 14.18573 120.59151 5309 ft 176 kts 182°
2026-04-27 07:48 14.17357 120.59015 5546 ft 175 kts 182°
2026-04-27 07:48 14.16143 120.58892 5786 ft 175 kts 182°
2026-04-27 07:48 14.14933 120.58763 6030 ft 175 kts 181°
2026-04-27 07:49 14.13723 120.58626 6271 ft 175 kts 183°
2026-04-27 07:49 14.12515 120.58487 6498 ft 174 kts 182°
2026-04-27 07:49 14.11309 120.58359 6730 ft 174 kts 182°
2026-04-27 07:49 14.10098 120.58231 6963 ft 175 kts 182°
2026-04-27 07:50 14.08903 120.58101 7187 ft 175 kts 181°
2026-04-27 07:50 14.07700 120.57953 7421 ft 174 kts 182°
2026-04-27 07:50 14.06502 120.57801 7661 ft 173 kts 182°
2026-04-27 07:50 14.05303 120.57671 7901 ft 173 kts 179°
2026-04-27 07:51 14.04100 120.57670 8114 ft 174 kts 172°
2026-04-27 07:51 14.02884 120.57761 8313 ft 177 kts 172°
2026-04-27 07:51 14.01647 120.57820 8508 ft 179 kts 174°
2026-04-27 07:51 14.00397 120.57868 8695 ft 180 kts 174°
2026-04-27 07:52 13.99141 120.57912 8875 ft 182 kts 175°
2026-04-27 07:52 13.97869 120.57958 9051 ft 183 kts 174°
2026-04-27 07:52 13.96590 120.58005 9209 ft 185 kts 174°
2026-04-27 07:52 13.95294 120.58051 9335 ft 187 kts 175°
2026-04-27 07:53 13.93983 120.58100 9459 ft 189 kts 175°
2026-04-27 07:53 13.92645 120.58150 9494 ft 195 kts 174°
2026-04-27 07:53 13.91277 120.58199 9503 ft 198 kts 174°
2026-04-27 07:53 13.89890 120.58249 9506 ft 201 kts 174°
2026-04-27 07:54 13.88490 120.58300 9507 ft 202 kts 174°
2026-04-27 07:54 13.87085 120.58352 9507 ft 202 kts 174°
2026-04-27 07:54 13.85681 120.58403 9504 ft 203 kts 174°
2026-04-27 07:54 13.84264 120.58452 9504 ft 204 kts 174°
2026-04-27 07:55 13.82836 120.58509 9505 ft 205 kts 174°
2026-04-27 07:55 13.81407 120.58560 9505 ft 205 kts 174°
2026-04-27 07:55 13.79997 120.58610 9507 ft 205 kts 175°
2026-04-27 07:55 13.78577 120.58662 9506 ft 204 kts 175°
2026-04-27 07:56 13.77163 120.58713 9505 ft 203 kts 175°
2026-04-27 07:56 13.75752 120.58765 9505 ft 203 kts 175°
2026-04-27 07:56 13.74337 120.58818 9505 ft 203 kts 175°
2026-04-27 07:56 13.72929 120.58868 9504 ft 202 kts 174°
2026-04-27 07:57 13.71517 120.58917 9503 ft 202 kts 176°
2026-04-27 07:57 13.70108 120.58970 9504 ft 203 kts 176°
2026-04-27 07:57 13.68697 120.59023 9504 ft 203 kts 175°
2026-04-27 07:57 13.67287 120.59076 9509 ft 203 kts 175°
2026-04-27 07:58 13.65878 120.59124 9510 ft 203 kts 176°
2026-04-27 07:58 13.64466 120.59177 9510 ft 203 kts 174°
2026-04-27 07:58 13.63059 120.59229 9510 ft 202 kts 174°
2026-04-27 07:58 13.61673 120.59278 9510 ft 202 kts 175°
2026-04-27 07:59 13.60267 120.59327 9510 ft 202 kts 175°
2026-04-27 07:59 13.57452 120.59434 9512 ft 203 kts 174°
2026-04-27 07:59 13.56042 120.59481 9512 ft 203 kts 176°
2026-04-27 08:00 13.54628 120.59534 9519 ft 203 kts 176°
2026-04-27 08:00 13.53213 120.59585 9517 ft 203 kts 177°
2026-04-27 08:00 13.51799 120.59639 9517 ft 203 kts 176°
2026-04-27 08:00 13.50381 120.59697 9516 ft 204 kts 176°
2026-04-27 08:01 13.48966 120.59756 9518 ft 204 kts 176°
2026-04-27 08:01 13.47549 120.59817 9518 ft 204 kts 176°
2026-04-27 08:01 13.46130 120.59880 9516 ft 204 kts 176°
2026-04-27 08:01 13.44714 120.59941 9518 ft 204 kts 176°
2026-04-27 08:02 13.43297 120.60000 9517 ft 204 kts 176°
2026-04-27 08:02 13.41884 120.60056 9516 ft 203 kts 176°
2026-04-27 08:02 13.40473 120.60102 9518 ft 203 kts 176°
2026-04-27 08:02 13.39064 120.60224 9517 ft 203 kts 169°
2026-04-27 08:03 13.37694 120.60565 9517 ft 203 kts 162°
2026-04-27 08:03 13.36355 120.61027 9517 ft 203 kts 159°
2026-04-27 08:03 13.35043 120.61506 9517 ft 202 kts 158°
2026-04-27 08:03 13.33733 120.62021 9516 ft 202 kts 158°
2026-04-27 08:04 13.32419 120.62550 9517 ft 202 kts 157°
2026-04-27 08:04 13.31111 120.63071 9528 ft 202 kts 157°
2026-04-27 08:04 13.29796 120.63592 9528 ft 202 kts 158°
2026-04-27 08:04 13.28485 120.64110 9529 ft 202 kts 157°
2026-04-27 08:05 13.27170 120.64624 9529 ft 202 kts 158°
2026-04-27 08:05 13.25846 120.65115 9529 ft 202 kts 160°
2026-04-27 08:05 13.24508 120.65573 9529 ft 202 kts 160°
2026-04-27 08:05 13.23171 120.66026 9529 ft 202 kts 160°
2026-04-27 08:06 13.21829 120.66475 9528 ft 203 kts 160°
2026-04-27 08:06 13.20493 120.66924 9528 ft 203 kts 161°
2026-04-27 08:06 13.19150 120.67384 9528 ft 203 kts 160°
2026-04-27 08:06 13.17810 120.67847 9528 ft 203 kts 160°
2026-04-27 08:07 13.16469 120.68308 9525 ft 203 kts 160°
2026-04-27 08:07 13.15127 120.68763 9526 ft 203 kts 161°
2026-04-27 08:07 13.13787 120.69214 9526 ft 203 kts 161°
2026-04-27 08:07 13.12444 120.69661 9525 ft 202 kts 161°
2026-04-27 08:08 13.11112 120.70127 9525 ft 202 kts 159°
2026-04-27 08:08 13.09790 120.70624 9525 ft 202 kts 158°
2026-04-27 08:08 13.08466 120.71117 9525 ft 202 kts 159°
2026-04-27 08:08 13.07148 120.71611 9525 ft 202 kts 159°
2026-04-27 08:09 13.05846 120.72103 9526 ft 202 kts 159°
2026-04-27 08:09 13.04525 120.72597 9526 ft 202 kts 159°
2026-04-27 08:09 13.03207 120.73112 9525 ft 202 kts 157°
2026-04-27 08:09 13.01905 120.73659 9526 ft 202 kts 156°
2026-04-27 08:10 13.00599 120.74204 9537 ft 202 kts 157°
2026-04-27 08:10 12.99295 120.74749 9537 ft 202 kts 156°
2026-04-27 08:10 12.97989 120.75296 9537 ft 202 kts 157°
2026-04-27 08:10 12.96684 120.75848 9536 ft 203 kts 156°
2026-04-27 08:11 12.95384 120.76400 9536 ft 203 kts 156°
2026-04-27 08:11 12.94080 120.76951 9537 ft 203 kts 156°
2026-04-27 08:11 12.92773 120.77495 9537 ft 202 kts 156°
2026-04-27 08:11 12.91470 120.78041 9542 ft 202 kts 156°
2026-04-27 08:12 12.90167 120.78589 9528 ft 203 kts 156°
2026-04-27 08:12 12.88860 120.79120 9529 ft 202 kts 156°
2026-04-27 08:12 12.87566 120.79632 9530 ft 202 kts 156°
2026-04-27 08:12 12.86257 120.80147 9527 ft 201 kts 157°
2026-04-27 08:13 12.84953 120.80668 9527 ft 200 kts 156°
2026-04-27 08:13 12.83656 120.81189 9526 ft 200 kts 156°
2026-04-27 08:13 12.82361 120.81717 9526 ft 200 kts 156°
2026-04-27 08:13 12.81063 120.82235 9527 ft 200 kts 156°
2026-04-27 08:14 12.79763 120.82754 9526 ft 201 kts 157°
2026-04-27 08:14 12.78465 120.83286 9526 ft 201 kts 156°
2026-04-27 08:14 12.77164 120.83817 9522 ft 202 kts 156°
2026-04-27 08:14 12.75858 120.84346 9522 ft 202 kts 157°
2026-04-27 08:15 12.74555 120.84879 9522 ft 201 kts 156°
2026-04-27 08:15 12.73251 120.85401 9522 ft 201 kts 156°
2026-04-27 08:15 12.71949 120.85925 9522 ft 201 kts 157°
2026-04-27 08:15 12.70651 120.86466 9523 ft 201 kts 154°
2026-04-27 08:16 12.69426 120.87149 9522 ft 200 kts 146°
2026-04-27 08:16 12.68259 120.87924 9523 ft 200 kts 144°
2026-04-27 08:16 12.67099 120.88707 9523 ft 200 kts 145°
2026-04-27 08:16 12.65942 120.89498 9523 ft 200 kts 144°
2026-04-27 08:17 12.64785 120.90291 9522 ft 200 kts 144°
2026-04-27 08:17 12.63641 120.91070 9513 ft 200 kts 145°
2026-04-27 08:17 12.62484 120.91867 9512 ft 200 kts 144°
2026-04-27 08:17 12.61329 120.92666 9513 ft 200 kts 144°
2026-04-27 08:18 12.60174 120.93455 9514 ft 200 kts 144°
2026-04-27 08:18 12.59017 120.94245 9514 ft 200 kts 145°
2026-04-27 08:18 12.57858 120.95042 9515 ft 200 kts 144°
2026-04-27 08:18 12.56698 120.95830 9515 ft 200 kts 144°
2026-04-27 08:19 12.55535 120.96617 9520 ft 200 kts 144°
2026-04-27 08:19 12.54370 120.97395 9519 ft 200 kts 145°
2026-04-27 08:19 12.53207 120.98176 9519 ft 200 kts 144°
2026-04-27 08:19 12.52040 120.98952 9517 ft 200 kts 144°
2026-04-27 08:20 12.50874 120.99736 9519 ft 201 kts 144°
2026-04-27 08:20 12.49708 121.00526 9509 ft 201 kts 144°
2026-04-27 08:20 12.48538 121.01310 9502 ft 201 kts 144°
2026-04-27 08:20 12.47364 121.02089 9510 ft 201 kts 145°
2026-04-27 08:21 12.46196 121.02871 9499 ft 200 kts 144°
2026-04-27 08:21 12.45028 121.03646 9506 ft 200 kts 144°
2026-04-27 08:21 12.43862 121.04416 9507 ft 200 kts 145°
2026-04-27 08:21 12.42698 121.05192 9505 ft 200 kts 145°
2026-04-27 08:22 12.41536 121.05974 9505 ft 200 kts 144°
2026-04-27 08:22 12.40370 121.06751 9505 ft 200 kts 145°
2026-04-27 08:22 12.39207 121.07535 9505 ft 200 kts 144°
2026-04-27 08:22 12.38056 121.08306 9513 ft 200 kts 145°
2026-04-27 08:23 12.36893 121.09091 9513 ft 200 kts 144°
2026-04-27 08:23 12.35727 121.09872 9506 ft 200 kts 144°
2026-04-27 08:23 12.34560 121.10650 9505 ft 200 kts 144°
2026-04-27 08:23 12.33396 121.11427 9506 ft 200 kts 144°
2026-04-27 08:24 12.32233 121.12205 9507 ft 199 kts 144°
2026-04-27 08:24 12.31072 121.12978 9505 ft 199 kts 145°
2026-04-27 08:24 12.29908 121.13756 9504 ft 200 kts 144°
2026-04-27 08:24 12.28744 121.14532 9498 ft 199 kts 144°
2026-04-27 08:25 12.27973 121.15047 9509 ft 200 kts 145°
2026-04-27 08:25 12.26425 121.16080 9509 ft 201 kts 145°
2026-04-27 08:25 12.25254 121.16861 9510 ft 201 kts 145°
2026-04-27 08:25 12.24084 121.17641 9510 ft 201 kts 144°
2026-04-27 08:26 12.22917 121.18421 9510 ft 200 kts 145°
2026-04-27 08:26 12.21750 121.19194 9512 ft 199 kts 142°
2026-04-27 08:26 12.20599 121.19966 9511 ft 197 kts 142°
2026-04-27 08:26 12.19822 121.20488 9510 ft 197 kts 142°
2026-04-27 08:27 12.18674 121.21251 9509 ft 197 kts 144°
2026-04-27 08:27 12.17155 121.22267 9501 ft 197 kts 142°
2026-04-27 08:27 12.16396 121.22769 9504 ft 197 kts 144°
2026-04-27 08:27 12.15249 121.23532 9503 ft 197 kts 144°
2026-04-27 08:28 12.14096 121.24302 9502 ft 198 kts 144°
2026-04-27 08:28 12.12549 121.25332 9501 ft 199 kts 143°
2026-04-27 08:28 12.11782 121.25843 9504 ft 199 kts 143°
2026-04-27 08:28 12.10621 121.26617 9501 ft 199 kts 144°
2026-04-27 08:29 12.09459 121.27391 9505 ft 199 kts 143°
2026-04-27 08:29 12.08300 121.28163 9503 ft 199 kts 142°
2026-04-27 08:29 12.07144 121.28933 9502 ft 199 kts 143°
2026-04-27 08:29 12.05987 121.29704 9502 ft 199 kts 144°
2026-04-27 08:30 12.04826 121.30477 9502 ft 199 kts 143°
2026-04-27 08:30 12.03666 121.31250 9501 ft 199 kts 144°
2026-04-27 08:30 12.02501 121.32024 9502 ft 200 kts 143°
2026-04-27 08:30 12.01337 121.32801 9502 ft 200 kts 144°
2026-04-27 08:31 12.00173 121.33575 9506 ft 199 kts 143°
2026-04-27 08:31 11.99010 121.34347 9505 ft 199 kts 144°
2026-04-27 08:31 11.97849 121.35122 9500 ft 200 kts 143°
2026-04-27 08:31 11.96686 121.35897 9506 ft 200 kts 143°
2026-04-27 08:32 11.95523 121.36669 9501 ft 199 kts 143°
2026-04-27 08:32 11.94363 121.37442 9500 ft 199 kts 143°
2026-04-27 08:32 11.93198 121.38218 9500 ft 200 kts 143°
2026-04-27 08:32 11.92035 121.38990 9496 ft 199 kts 143°
2026-04-27 08:33 11.90887 121.39753 9499 ft 200 kts 144°
2026-04-27 08:33 11.89722 121.40528 9499 ft 200 kts 144°
2026-04-27 08:33 11.88555 121.41304 9505 ft 200 kts 144°
2026-04-27 08:33 11.87386 121.42081 9506 ft 200 kts 143°
2026-04-27 08:34 11.86221 121.42856 9505 ft 200 kts 144°
2026-04-27 08:34 11.85052 121.43633 9507 ft 201 kts 143°
2026-04-27 08:34 11.83883 121.44410 9505 ft 201 kts 143°
2026-04-27 08:34 11.82714 121.45187 9508 ft 200 kts 143°
2026-04-27 08:35 11.81547 121.45964 9505 ft 201 kts 144°
2026-04-27 08:35 11.80374 121.46743 9505 ft 201 kts 143°
2026-04-27 08:35 11.79199 121.47524 9498 ft 201 kts 143°
2026-04-27 08:35 11.78028 121.48301 9503 ft 201 kts 144°
2026-04-27 08:36 11.76852 121.49081 9500 ft 201 kts 144°
2026-04-27 08:36 11.75677 121.49862 9493 ft 201 kts 143°
2026-04-27 08:36 11.74505 121.50640 9501 ft 201 kts 143°
2026-04-27 08:36 11.73333 121.51418 9500 ft 201 kts 144°
2026-04-27 08:37 11.72161 121.52194 9501 ft 200 kts 142°
2026-04-27 08:37 11.70999 121.52969 9505 ft 199 kts 143°
2026-04-27 08:37 11.69840 121.53740 9505 ft 199 kts 143°
2026-04-27 08:37 11.68681 121.54508 9503 ft 199 kts 144°
2026-04-27 08:38 11.67521 121.55275 9495 ft 198 kts 143°
2026-04-27 08:38 11.66368 121.56046 9494 ft 198 kts 144°
2026-04-27 08:38 11.65210 121.56813 9494 ft 199 kts 144°
2026-04-27 08:38 11.64049 121.57580 9496 ft 199 kts 144°
2026-04-27 08:39 11.62883 121.58355 9497 ft 200 kts 143°
2026-04-27 08:39 11.61722 121.59125 9497 ft 200 kts 144°
2026-04-27 08:39 11.60555 121.59899 9498 ft 200 kts 143°
2026-04-27 08:39 11.59390 121.60671 9498 ft 199 kts 143°
2026-04-27 08:40 11.58229 121.61441 9499 ft 199 kts 142°
2026-04-27 08:40 11.57068 121.62212 9498 ft 199 kts 143°
2026-04-27 08:40 11.55921 121.62973 9498 ft 200 kts 144°
2026-04-27 08:40 11.54757 121.63743 9499 ft 200 kts 143°
2026-04-27 08:41 11.53589 121.64518 9498 ft 201 kts 144°
2026-04-27 08:41 11.52417 121.65297 9497 ft 202 kts 144°
2026-04-27 08:41 11.51237 121.66079 9497 ft 202 kts 144°
2026-04-27 08:41 11.50059 121.66859 9497 ft 202 kts 144°
2026-04-27 08:42 11.48882 121.67637 9498 ft 201 kts 144°
2026-04-27 08:42 11.47709 121.68416 9497 ft 201 kts 143°
2026-04-27 08:42 11.46537 121.69191 9497 ft 201 kts 144°
2026-04-27 08:42 11.45366 121.69967 9492 ft 201 kts 143°
2026-04-27 08:43 11.44194 121.70744 9496 ft 201 kts 144°
2026-04-27 08:43 11.43019 121.71523 9496 ft 202 kts 144°
2026-04-27 08:43 11.41840 121.72303 9496 ft 202 kts 144°
2026-04-27 08:43 11.40663 121.73082 9496 ft 202 kts 144°
2026-04-27 08:44 11.39482 121.73864 9496 ft 202 kts 145°
2026-04-27 08:44 11.38300 121.74646 9499 ft 203 kts 144°
2026-04-27 08:44 11.37120 121.75428 9500 ft 202 kts 144°
2026-04-27 08:44 11.35943 121.76208 9499 ft 202 kts 144°
2026-04-27 08:45 11.34764 121.76988 9502 ft 202 kts 144°
2026-04-27 08:45 11.33588 121.77765 9502 ft 201 kts 143°
2026-04-27 08:45 11.32414 121.78543 9501 ft 201 kts 144°
2026-04-27 08:45 11.31243 121.79317 9500 ft 201 kts 144°
2026-04-27 08:46 11.30069 121.80095 9496 ft 201 kts 144°
2026-04-27 08:46 11.28899 121.80871 9498 ft 201 kts 145°
2026-04-27 08:46 11.27723 121.81645 9498 ft 201 kts 145°
2026-04-27 08:46 11.26549 121.82419 9498 ft 201 kts 145°
2026-04-27 08:47 11.25380 121.83196 9495 ft 201 kts 144°
2026-04-27 08:47 11.24204 121.83975 9495 ft 201 kts 145°
2026-04-27 08:47 11.23030 121.84750 9495 ft 201 kts 145°
2026-04-27 08:47 11.21856 121.85526 9506 ft 201 kts 145°
2026-04-27 08:48 11.20695 121.86293 9509 ft 201 kts 145°
2026-04-27 08:48 11.19519 121.87070 9509 ft 202 kts 145°
2026-04-27 08:48 11.18342 121.87849 9509 ft 202 kts 145°
2026-04-27 08:48 11.17162 121.88630 9508 ft 202 kts 145°
2026-04-27 08:49 11.15982 121.89409 9508 ft 202 kts 145°
2026-04-27 08:49 11.14801 121.90189 9508 ft 202 kts 145°
2026-04-27 08:49 11.13620 121.90969 9508 ft 202 kts 145°
2026-04-27 08:49 11.12439 121.91749 9508 ft 202 kts 145°
2026-04-27 08:50 11.11257 121.92530 9508 ft 202 kts 145°
2026-04-27 08:50 11.10077 121.93309 9508 ft 202 kts 145°
2026-04-27 08:50 11.08893 121.94091 9508 ft 202 kts 145°
2026-04-27 08:50 11.07716 121.94869 9501 ft 202 kts 145°
2026-04-27 08:51 11.06536 121.95647 9511 ft 202 kts 145°
2026-04-27 08:51 11.05357 121.96426 9522 ft 202 kts 145°
2026-04-27 08:51 11.04177 121.97205 9522 ft 202 kts 145°
2026-04-27 08:51 11.02995 121.97985 9515 ft 202 kts 145°
2026-04-27 08:52 11.01815 121.98764 9522 ft 202 kts 145°
2026-04-27 08:52 11.00635 121.99542 9508 ft 202 kts 145°
2026-04-27 08:52 10.99456 122.00321 9516 ft 202 kts 145°
2026-04-27 08:52 10.98276 122.01099 9516 ft 202 kts 145°
2026-04-27 08:53 10.97095 122.01878 9516 ft 202 kts 145°
2026-04-27 08:53 10.95920 122.02653 9515 ft 202 kts 145°
2026-04-27 08:53 10.94744 122.03430 9516 ft 202 kts 145°
2026-04-27 08:53 10.93580 122.04197 9508 ft 202 kts 145°
2026-04-27 08:54 10.92404 122.04974 9515 ft 201 kts 145°
2026-04-27 08:54 10.91228 122.05748 9510 ft 201 kts 145°
2026-04-27 08:54 10.90057 122.06521 9516 ft 201 kts 145°
2026-04-27 08:54 10.88882 122.07295 9515 ft 201 kts 145°
2026-04-27 08:55 10.87707 122.08070 9524 ft 202 kts 144°
2026-04-27 08:55 10.86529 122.08847 9508 ft 202 kts 145°
2026-04-27 08:55 10.85349 122.09624 9515 ft 202 kts 144°
2026-04-27 08:55 10.84170 122.10401 9515 ft 202 kts 144°
2026-04-27 08:56 10.82990 122.11180 9516 ft 202 kts 144°
2026-04-27 08:56 10.81808 122.11958 9516 ft 202 kts 144°
2026-04-27 08:56 10.80628 122.12736 9515 ft 201 kts 143°
2026-04-27 08:56 10.79454 122.13510 9507 ft 201 kts 144°
2026-04-27 08:57 10.77116 122.15048 9508 ft 200 kts 144°
2026-04-27 08:57 10.75950 122.15818 9514 ft 200 kts 144°
2026-04-27 08:57 10.74778 122.16589 9513 ft 201 kts 144°
2026-04-27 08:58 10.73605 122.17363 9515 ft 201 kts 144°
2026-04-27 08:58 10.72428 122.18137 9510 ft 202 kts 144°
2026-04-27 08:58 10.71250 122.18913 9509 ft 202 kts 144°
2026-04-27 08:58 10.70069 122.19691 9500 ft 202 kts 144°
2026-04-27 08:59 10.68892 122.20465 9502 ft 201 kts 144°
2026-04-27 08:59 10.67718 122.21236 9508 ft 201 kts 144°
2026-04-27 08:59 10.66548 122.22007 9502 ft 200 kts 144°
2026-04-27 08:59 10.65380 122.22776 9506 ft 201 kts 145°
2026-04-27 09:00 10.64213 122.23551 9505 ft 200 kts 141°
2026-04-27 09:00 10.63163 122.24465 9501 ft 199 kts 136°
2026-04-27 09:00 10.62127 122.25404 9504 ft 199 kts 136°
2026-04-27 09:00 10.61087 122.26332 9505 ft 199 kts 136°
2026-04-27 09:01 10.60046 122.27261 9509 ft 199 kts 136°
2026-04-27 09:01 10.59006 122.28188 9497 ft 199 kts 136°
2026-04-27 09:01 10.57967 122.29113 9493 ft 198 kts 136°
2026-04-27 09:01 10.56934 122.30036 9497 ft 198 kts 136°
2026-04-27 09:02 10.55899 122.30959 9498 ft 198 kts 136°
2026-04-27 09:02 10.54874 122.31874 9498 ft 199 kts 136°
2026-04-27 09:02 10.53835 122.32802 9497 ft 199 kts 136°
2026-04-27 09:02 10.52795 122.33727 9491 ft 199 kts 137°
2026-04-27 09:03 10.51757 122.34654 9498 ft 198 kts 137°
2026-04-27 09:03 10.50722 122.35578 9495 ft 198 kts 136°
2026-04-27 09:03 10.49687 122.36501 9495 ft 198 kts 137°
2026-04-27 09:03 10.48649 122.37425 9498 ft 198 kts 137°
2026-04-27 09:04 10.47614 122.38348 9501 ft 198 kts 137°
2026-04-27 09:04 10.46579 122.39269 9501 ft 198 kts 137°
2026-04-27 09:04 10.45543 122.40194 9498 ft 198 kts 137°
2026-04-27 09:04 10.44508 122.41116 9498 ft 198 kts 137°
2026-04-27 09:05 10.43471 122.42040 9498 ft 198 kts 137°
2026-04-27 09:05 10.42787 122.42650 9498 ft 198 kts 136°
2026-04-27 09:05 10.41402 122.43884 9499 ft 198 kts 136°
2026-04-27 09:05 10.40364 122.44808 9499 ft 198 kts 136°
2026-04-27 09:06 10.39328 122.45731 9499 ft 198 kts 136°
2026-04-27 09:06 10.38291 122.46655 9498 ft 198 kts 136°
2026-04-27 09:06 10.37255 122.47577 9498 ft 198 kts 137°
2026-04-27 09:06 10.36230 122.48490 9498 ft 198 kts 136°
2026-04-27 09:07 10.35196 122.49412 9501 ft 198 kts 136°
2026-04-27 09:07 10.34162 122.50332 9500 ft 198 kts 137°
2026-04-27 09:07 10.33128 122.51253 9497 ft 198 kts 137°
2026-04-27 09:07 10.32094 122.52174 9494 ft 198 kts 137°
2026-04-27 09:08 10.31059 122.53094 9494 ft 198 kts 136°
2026-04-27 09:08 10.30024 122.54015 9495 ft 197 kts 136°
2026-04-27 09:08 10.28991 122.54934 9496 ft 198 kts 136°
2026-04-27 09:08 10.27958 122.55855 9496 ft 198 kts 136°
2026-04-27 09:09 10.26922 122.56777 9496 ft 198 kts 136°
2026-04-27 09:09 10.25885 122.57699 9496 ft 198 kts 137°
2026-04-27 09:09 10.24849 122.58621 9486 ft 198 kts 137°
2026-04-27 09:09 10.23813 122.59542 9496 ft 198 kts 136°
2026-04-27 09:10 10.22775 122.60466 9499 ft 198 kts 136°
2026-04-27 09:10 10.21735 122.61391 9499 ft 199 kts 136°
2026-04-27 09:10 10.20696 122.62314 9502 ft 199 kts 136°
2026-04-27 09:10 10.19658 122.63238 9503 ft 199 kts 137°
2026-04-27 09:11 10.18618 122.64163 9499 ft 199 kts 137°
2026-04-27 09:11 10.17589 122.65079 9503 ft 199 kts 137°
2026-04-27 09:11 10.16544 122.66006 9498 ft 199 kts 137°
2026-04-27 09:11 10.15501 122.66929 9502 ft 199 kts 137°
2026-04-27 09:12 10.14462 122.67859 9502 ft 199 kts 137°
2026-04-27 09:12 10.13421 122.68786 9501 ft 199 kts 137°
2026-04-27 09:12 10.12379 122.69711 9501 ft 199 kts 137°
2026-04-27 09:12 10.11337 122.70634 9501 ft 199 kts 137°
2026-04-27 09:13 10.10296 122.71560 9504 ft 199 kts 137°
2026-04-27 09:13 10.09254 122.72485 9497 ft 199 kts 137°
2026-04-27 09:13 10.08215 122.73408 9520 ft 197 kts 137°
2026-04-27 09:13 10.07178 122.74329 9466 ft 199 kts 137°
2026-04-27 09:14 10.06133 122.75256 9340 ft 199 kts 137°
2026-04-27 09:14 10.05443 122.75868 9257 ft 199 kts 137°
2026-04-27 09:14 10.04056 122.77100 9095 ft 197 kts 137°
2026-04-27 09:14 10.03034 122.78009 8967 ft 195 kts 137°
2026-04-27 09:15 10.02018 122.78911 8842 ft 193 kts 137°
2026-04-27 09:15 10.01343 122.79501 8759 ft 193 kts 137°
2026-04-27 09:15 9.99995 122.80700 8594 ft 192 kts 137°
2026-04-27 09:15 9.99334 122.81291 8512 ft 191 kts 137°
2026-04-27 09:16 9.98334 122.82182 8389 ft 191 kts 137°
2026-04-27 09:16 9.97334 122.83069 8267 ft 190 kts 137°
2026-04-27 09:16 9.96338 122.83953 8149 ft 190 kts 137°
2026-04-27 09:16 9.95021 122.85121 7988 ft 189 kts 137°
2026-04-27 09:17 9.94351 122.85715 7908 ft 189 kts 137°
2026-04-27 09:17 9.93367 122.86589 7789 ft 188 kts 137°
2026-04-27 09:17 9.92385 122.87460 7669 ft 187 kts 137°
2026-04-27 09:17 9.91405 122.88330 7549 ft 186 kts 137°
2026-04-27 09:18 9.90430 122.89194 7427 ft 186 kts 137°
2026-04-27 09:18 9.89460 122.90053 7311 ft 184 kts 136°
2026-04-27 09:18 9.88496 122.90910 7184 ft 185 kts 136°
2026-04-27 09:18 9.87538 122.91760 7077 ft 185 kts 136°
2026-04-27 09:19 9.86569 122.92618 6962 ft 185 kts 136°
2026-04-27 09:19 9.85601 122.93478 6842 ft 184 kts 136°
2026-04-27 09:19 9.84636 122.94330 6730 ft 183 kts 136°
2026-04-27 09:19 9.83681 122.95182 6616 ft 183 kts 136°
2026-04-27 09:20 9.82721 122.96028 6503 ft 183 kts 136°
2026-04-27 09:20 9.81759 122.96884 6388 ft 184 kts 137°
2026-04-27 09:20 9.80790 122.97744 6274 ft 186 kts 136°
2026-04-27 09:20 9.79815 122.98604 6155 ft 186 kts 136°
2026-04-27 09:21 9.78837 122.99471 6033 ft 187 kts 137°
2026-04-27 09:21 9.77858 123.00343 5910 ft 187 kts 136°
2026-04-27 09:21 9.76878 123.01211 5788 ft 187 kts 136°
2026-04-27 09:21 9.75899 123.02077 5665 ft 186 kts 137°
2026-04-27 09:22 9.74923 123.02940 5546 ft 186 kts 136°
2026-04-27 09:22 9.73952 123.03801 5424 ft 185 kts 136°
2026-04-27 09:22 9.72989 123.04653 5303 ft 183 kts 136°
2026-04-27 09:22 9.72031 123.05503 5183 ft 183 kts 136°
2026-04-27 09:23 9.71078 123.06347 5064 ft 181 kts 136°
2026-04-27 09:23 9.70131 123.07185 4944 ft 180 kts 136°
2026-04-27 09:23 9.69189 123.08018 4823 ft 179 kts 136°
2026-04-27 09:23 9.68251 123.08848 4704 ft 179 kts 135°
2026-04-27 09:24 9.67318 123.09676 4588 ft 178 kts 136°
2026-04-27 09:24 9.66383 123.10506 4455 ft 179 kts 136°
2026-04-27 09:24 9.65446 123.11334 4337 ft 179 kts 135°
2026-04-27 09:24 9.64511 123.12160 4212 ft 178 kts 136°
2026-04-27 09:25 9.63578 123.12987 4093 ft 178 kts 136°
2026-04-27 09:25 9.62645 123.13811 3971 ft 178 kts 135°
2026-04-27 09:25 9.61694 123.14614 3849 ft 179 kts 143°
2026-04-27 09:25 9.60579 123.15198 3728 ft 181 kts 149°
2026-04-27 09:26 9.59458 123.15777 3605 ft 181 kts 149°
2026-04-27 09:26 9.58341 123.16361 3484 ft 181 kts 149°
2026-04-27 09:26 9.57234 123.16939 3366 ft 182 kts 149°
2026-04-27 09:26 9.56109 123.17525 3247 ft 182 kts 149°
2026-04-27 09:27 9.54966 123.18124 3127 ft 183 kts 149°
2026-04-27 09:27 9.53851 123.18704 3009 ft 183 kts 149°
2026-04-27 09:27 9.52720 123.19292 2887 ft 183 kts 149°
2026-04-27 09:27 9.51588 123.19885 2765 ft 183 kts 149°
2026-04-27 09:28 9.50460 123.20474 2647 ft 182 kts 149°
2026-04-27 09:28 9.49334 123.21058 2520 ft 182 kts 150°
2026-04-27 09:28 9.48225 123.21639 2493 ft 177 kts 150°
2026-04-27 09:28 9.47142 123.22204 2489 ft 173 kts 150°
2026-04-27 09:29 9.46067 123.22743 2469 ft 172 kts 153°
2026-04-27 09:29 9.44967 123.23234 2391 ft 173 kts 155°
2026-04-27 09:29 9.43849 123.23663 2320 ft 171 kts 157°
2026-04-27 09:29 9.42738 123.24085 2209 ft 171 kts 158°
2026-04-27 09:30 9.41630 123.24518 2042 ft 171 kts 158°
2026-04-27 09:30 9.40501 123.24881 1987 ft 168 kts 162°
2026-04-27 09:30 9.39381 123.25167 1936 ft 165 kts 166°
2026-04-27 09:30 9.38259 123.25379 1846 ft 162 kts 168°
2026-04-27 09:31 9.37169 123.25565 1738 ft 154 kts 168°
2026-04-27 09:31 9.36148 123.25767 1516 ft 145 kts 164°
2026-04-27 09:31 9.35194 123.26029 1254 ft 138 kts 160°
2026-04-27 09:31 9.34332 123.26359 1040 ft 128 kts 147°
2026-04-27 09:32 9.33754 123.26981 850 ft 118 kts 116°
2026-04-27 09:32 9.33568 123.27777 658 ft 115 kts 95°
2026-04-27 09:32 9.33519 123.28532 405 ft 95 kts 88°
2026-04-27 09:32 9.33477 123.29161 209 ft 87 kts 90°
2026-04-27 09:33 9.33445 123.29756 68 ft 80 kts 89°
2026-04-27 09:33 9.33421 123.30224 33 ft 54 kts 95°
2026-04-27 09:33 9.33402 123.30511 31 ft 19 kts 95°
2026-04-27 09:33 9.33396 123.30598 29 ft 11 kts 200°
2026-04-27 09:34 9.33397 123.30509 31 ft 16 kts 278°
2026-04-27 09:34 9.33405 123.30381 33 ft 19 kts 274°
2026-04-27 09:34 9.33417 123.30232 33 ft 22 kts 270°
2026-04-27 09:34 9.33423 123.30094 36 ft 18 kts 271°
2026-04-27 09:35 9.33430 123.29965 41 ft 16 kts 272°
2026-04-27 09:35 9.33435 123.29839 42 ft 20 kts 275°
2026-04-27 09:35 9.33443 123.29689 43 ft 18 kts 274°
2026-04-27 09:35 9.33450 123.29561 42 ft 16 kts 271°
2026-04-27 09:36 9.33458 123.29436 48 ft 16 kts 274°
2026-04-27 09:36 9.33443 123.29360 47 ft 10 kts 214°
2026-04-27 09:36 9.33403 123.29357 46 ft 2 kts 136°
2026-04-27 09:36 9.33401 123.29367 46 ft 0 kts 95°